TimeCST,TemperatureF,Dew PointF,Humidity,Sea Level PressureIn,VisibilityMPH,Wind Direction,Wind SpeedMPH,Gust SpeedMPH,PrecipitationIn,Events,Conditions,WindDirDegrees,DateUTC
12:00 AM,70,68,91,29.83,5,West,3.5,,,,Mist,280,2013-05-01 06:00:00
12:00 AM,69.8,68.0,94,30.03,5.0,West,3.5,-,N/A,Fog,Fog,280,2013-05-01 06:00:00
1:00 AM,69.8,68.0,94,30.02,2.5,SSW,3.5,-,N/A,,Mostly Cloudy,210,2013-05-01 07:00:00
2:00 AM,69.8,66.2,88,29.97,6.2,ESE,2.3,-,N/A,,Mostly Cloudy,110,2013-05-01 08:00:00
3:00 AM,69,67,89,29.80,6,NW,3.5,,,,Scattered Clouds,320,2013-05-01 09:00:00
3:00 AM,69.8,66.2,88,29.98,6.2,NW,3.5,-,N/A,,Mostly Cloudy,320,2013-05-01 09:00:00
4:00 AM,68.0,66.2,94,30.00,5.0,SSW,2.3,-,N/A,,Mostly Cloudy,200,2013-05-01 10:00:00
4:07 AM,68.0,66.2,94,30.00,0.5,South,2.3,-,N/A,Fog,Fog,180,2013-05-01 10:07:00
5:00 AM,68.0,66.2,94,30.01,1.2,Calm,Calm,-,N/A,,Mostly Cloudy,0,2013-05-01 11:00:00
6:00 AM,68,65,87,29.86,5,East,4.6,,,,,100,2013-05-01 12:00:00
6:00 AM,68.0,64.4,88,30.02,5.0,East,4.6,-,N/A,Fog,Fog,100,2013-05-01 12:00:00
7:00 AM,73.4,62.6,69,30.03,-9999.0,NE,5.8,-,N/A,,Clear,50,2013-05-01 13:00:00
8:00 AM,78.8,57.2,47,30.03,-9999.0,NNW,2.3,-,N/A,,Clear,330,2013-05-01 14:00:00
9:00 AM,79,64,51,29.84,12,SW,4.6,,,,Overcast,230,2013-05-01 15:00:00
9:00 AM,78.8,64.4,61,30.04,6.2,SW,4.6,-,N/A,,Mostly Cloudy,230,2013-05-01 15:00:00
10:00 AM,82.4,62.6,51,30.04,6.2,WSW,8.1,-,N/A,,Scattered Clouds,240,2013-05-01 16:00:00
11:00 AM,82.4,66.2,58,30.03,6.2,SW,11.5,-,N/A,,Scattered Clouds,230,2013-05-01 17:00:00
12:00 PM,84,67,46,29.82,12,SSW,10.4,,,,Scattered Clouds,210,2013-05-01 18:00:00
12:00 PM,84.2,66.2,55,30.01,6.2,SSW,10.4,-,N/A,,Mostly Cloudy,210,2013-05-01 18:00:00
1:00 PM,84.2,68.0,58,29.99,6.2,SW,12.7,-,N/A,,Mostly Cloudy,230,2013-05-01 19:00:00
2:00 PM,84.2,68.0,58,29.97,6.2,SW,12.7,-,N/A,,Mostly Cloudy,230,2013-05-01 20:00:00
3:00 PM,78,67,61,29.81,9,WSW,13.8,,,,Partly Cloudy,250,2013-05-01 21:00:00
3:00 PM,78.8,66.2,65,29.98,6.2,WSW,13.8,-,N/A,,Mostly Cloudy,250,2013-05-01 21:00:00
4:00 PM,73.4,68.0,83,29.98,6.2,SW,4.6,-,N/A,Rain,Rain,230,2013-05-01 22:00:00
5:00 PM,71.6,68.0,88,30.02,5.0,South,5.8,-,N/A,Rain,Rain,190,2013-05-01 23:00:00
6:00 PM,71,69,89,29.87,6,SSW,8.1,,,Rain,Light Drizzle,210,2013-05-02 00:00:00
6:00 PM,71.6,68.0,88,30.03,6.2,SSW,8.1,-,N/A,,Light Drizzle,210,2013-05-02 00:00:00
7:00 PM,69.8,68.0,94,30.04,6.2,WSW,5.8,-,N/A,,Mostly Cloudy,250,2013-05-02 01:00:00
8:00 PM,69.8,68.0,94,30.06,6.2,West,5.8,-,N/A,,Mostly Cloudy,280,2013-05-02 02:00:00
9:00 PM,71,68,87,29.91,6,West,6.9,,,Fog,Light Fog,280,2013-05-02 03:00:00
9:00 PM,71.6,68.0,88,30.08,6.2,West,6.9,-,N/A,,Mostly Cloudy,280,2013-05-02 03:00:00
10:00 PM,69.8,68.0,94,30.09,6.2,Calm,Calm,-,N/A,,Mostly Cloudy,0,2013-05-02 04:00:00
11:00 PM,71.6,68.0,88,30.08,6.2,WSW,2.3,-,N/A,,Mostly Cloudy,250,2013-05-02 05:00:00